(251957) = 1999 XN228 = 2004 TS123 = 2006 BZ232

Discovered at Kitt Peak on 1999-12-14 by Spacewatch.

Orbit

Orbit type: Main Belt

Note: WebGL enabled browser required.

epoch2024-03-31.0
epoch JD2460400.5
perihelion date2021-11-17.92927
perihelion JD2459536.42928
argument of perihelion (°)301.86886
ascending node (°)94.43949
inclination (°)7.08460
eccentricity0.1541025
perihelion distance (AU)2.7007642
Tisserand w.r.t. Jupiter3.2
ΔV w.r.t. Earth (km/sec)10.5
semimajor axis (AU)3.1927797
mean anomaly (°)149.27942
mean daily motion (°/day)0.17276300
aphelion distance (AU)3.685
period (years)5.7
P-vector [x]0.79937747
P-vector [y]0.58447315
P-vector [z]0.13923650
Q-vector [x]-0.58811169
Q-vector [y]0.71372946
Q-vector [z]0.38041412
absolute magnitude15.7
phase slope0.15
uncertainty0
referenceE2024-GI3
observations used515
oppositions17
arc length (days)8893
first opposition used1999
last opposition used2024
residual rms (arc-secs)0.68
perturbers coarse indicatorM-v
perturbers precise indicator003Ek
first observation date used1999-12-07.0
last observation date used2024-04-12.0
computer nameMPCLINUX
JD of orbit computation2456465.513304
perihelion JD uncertainty (days)1.5219E-04
argument of perihelion uncertainty (°)6.2558E-05
ascending node uncertainty (°)5.7184E-05
inclination uncertainty (°)8.6749E-06
eccentricity uncertainty 1.0278E-07
perihelion distance uncertainty (AU)3.2991E-07
Minimum Orbit Intersection Distances (in AU)
for orbit epoch: 2460400.5, reference: E2024-GI3
Mercury2.37495
Venus1.97916
Earth1.71693
Mars1.24249
Jupiter1.7556
Saturn5.95482
Uranus14.915
Neptune26.9822

Observations

509 total observations over interval: 1999 12 07.35295 – 2024 02 18.606920
These data are available for download (format description).

Date (UT) J2000 RA J2000 Dec Magn Location Ref
1999 12 07.35295 07 51 51.23 +22 22 19.6 20.9 V 691 – Steward Observatory, Kitt Peak-Spacewatch MPS 34158
1999 12 07.37766 07 51 50.65 +22 22 24.9 20.7 V 691 – Steward Observatory, Kitt Peak-Spacewatch MPS 34158
1999 12 07.40134 07 51 50.07 +22 22 29.8 20.9 V 691 – Steward Observatory, Kitt Peak-Spacewatch MPS 34158
1999 12 14.44677 07 48 31.97 +22 48 58.7 21.5 V 691 – Steward Observatory, Kitt Peak-Spacewatch MPS 9170
1999 12 14.48062 07 48 30.81 +22 49 07.0 21.0 V 691 – Steward Observatory, Kitt Peak-Spacewatch MPS 9170
1999 12 14.50327 07 48 30.02 +22 49 12.1 21.0 V 691 – Steward Observatory, Kitt Peak-Spacewatch MPS 9170
1999 12 18.31529 07 46 13.81 +23 04 43.3 19.4 V 691 – Steward Observatory, Kitt Peak-Spacewatch MPS 9170
1999 12 18.33771 07 46 12.88 +23 04 49.3 19.9 V 691 – Steward Observatory, Kitt Peak-Spacewatch MPS 9170
1999 12 18.36022 07 46 11.99 +23 04 54.6 20.5 V 691 – Steward Observatory, Kitt Peak-Spacewatch MPS 9170
2002 05 05.35246 15 41 36.68 -12 58 30.2 21.0 V 291 – LPL/Spacewatch II MPS 165900
2002 05 05.37296 15 41 35.78 -12 58 27.7 21.7 V 291 – LPL/Spacewatch II MPS 165900
2002 05 05.39935 15 41 34.59 -12 58 24.8 21.6 V 291 – LPL/Spacewatch II MPS 165900
2004 10 07.25758 02 50 12.68 +06 09 11.5 19.2 R 699 – Lowell Observatory-LONEOS MPS 117834
2004 10 07.27702 02 50 12.20 +06 09 06.8   699 – Lowell Observatory-LONEOS MPS 117834
2004 10 07.29646 02 50 11.48 +06 09 02.2   699 – Lowell Observatory-LONEOS MPS 117835
2004 10 07.31590 02 50 10.85 +06 09 00.1   699 – Lowell Observatory-LONEOS MPS 117835
2004 10 09.26978 02 49 08.33 +06 02 57.7 19.8   704 – Lincoln Laboratory ETS, New Mexico MPS 117835
2004 10 09.28118 02 49 07.87 +06 02 55.8 19.9   704 – Lincoln Laboratory ETS, New Mexico MPS 117835
2004 10 09.29257 02 49 07.55 +06 02 52.8 19.9   704 – Lincoln Laboratory ETS, New Mexico MPS 117835
2004 10 09.30424 02 49 07.18 +06 02 51.0 20.1   704 – Lincoln Laboratory ETS, New Mexico MPS 117835
2004 12 14.176177 02 08 56.753 +05 28 20.68 20.25 V 645 – Apache Point-Sloan Digital Sky Survey MPS 390428
2004 12 14.179649 02 08 56.726 +05 28 21.37 21.02   645 – Apache Point-Sloan Digital Sky Survey MPS 390428
2005 03 10.11677 03 15 56.20 +15 18 18.8 20.1 R G96 – Mt. Lemmon Survey MPS 165900
2005 03 10.12335 03 15 56.75 +15 18 21.4 20.6 R G96 – Mt. Lemmon Survey MPS 165900
2005 03 10.12988 03 15 57.31 +15 18 24.3 20.7 R G96 – Mt. Lemmon Survey MPS 165900
2005 03 10.13637 03 15 57.85 +15 18 27.3 20.9 R G96 – Mt. Lemmon Survey MPS 165900
2006 01 31.17892 09 30 47.73 +21 51 56.8 20.4 V 691 – Steward Observatory, Kitt Peak-Spacewatch MPS 163303
2006 01 31.19621 09 30 46.88 +21 52 02.4 20.4 V 691 – Steward Observatory, Kitt Peak-Spacewatch MPS 163303
2006 01 31.21349 09 30 46.02 +21 52 08.4 20.3 V 691 – Steward Observatory, Kitt Peak-Spacewatch MPS 163303
2006 02 03.16340 09 28 22.38 +22 08 05.9   691 – Steward Observatory, Kitt Peak-Spacewatch MPS 163303
2006 02 03.18076 09 28 21.56 +22 08 11.1   691 – Steward Observatory, Kitt Peak-Spacewatch MPS 163303
2006 02 03.19814 09 28 20.67 +22 08 16.4   691 – Steward Observatory, Kitt Peak-Spacewatch MPS 163303
2006 02 04.23145 09 27 29.82 +22 13 44.8 20.5 V 691 – Steward Observatory, Kitt Peak-Spacewatch MPS 165900
2006 02 04.24883 09 27 28.93 +22 13 50.4 20.4 V 691 – Steward Observatory, Kitt Peak-Spacewatch MPS 165900
2006 02 04.26610 09 27 28.06 +22 13 55.9 20.3 V 691 – Steward Observatory, Kitt Peak-Spacewatch MPS 165900
2007 03 14.37101 13 39 41.54 -00 26 43.9 20.6 V G96 – Mt. Lemmon Survey MPS 202852
2007 03 14.37881 13 39 41.32 -00 26 41.7 20.8 V G96 – Mt. Lemmon Survey MPS 202852
2007 03 14.38653 13 39 41.07 -00 26 40.0 20.7 V G96 – Mt. Lemmon Survey MPS 202852
2007 03 14.39443 13 39 40.82 -00 26 38.2 21.2 V G96 – Mt. Lemmon Survey MPS 202852
2007 04 26.17000 13 11 32.10 +02 23 39.6 20.7 V G96 – Mt. Lemmon Survey MPS 207962
2007 04 26.17556 13 11 31.84 +02 23 40.8 21.3 V G96 – Mt. Lemmon Survey MPS 207962
2007 04 26.18117 13 11 31.59 +02 23 42.1 20.8 V G96 – Mt. Lemmon Survey MPS 207962
2007 04 26.18669 13 11 31.41 +02 23 42.7 21.0 V G96 – Mt. Lemmon Survey MPS 207962
2009 07 27.36179 22 10 03.46 -19 16 13.2 19.8 V 703 – Catalina Sky Survey MPS 290104
2009 07 27.37029 22 10 03.07 -19 16 16.4 20.9 V 703 – Catalina Sky Survey MPS 290104
2009 07 27.37875 22 10 02.82 -19 16 18.4 19.9 V 703 – Catalina Sky Survey MPS 290104
2009 07 27.38724 22 10 02.46 -19 16 21.6 21.1 V 703 – Catalina Sky Survey MPS 290104
2010 11 06.41301 05 20 08.52 +18 26 07.3 19.8 V G96 – Mt. Lemmon Survey MPS 355183
2010 11 06.42242 05 20 08.26 +18 26 07.8 19.6 V G96 – Mt. Lemmon Survey MPS 355183
2010 11 06.43184 05 20 07.98 +18 26 08.0 19.8 V G96 – Mt. Lemmon Survey MPS 355183
2010 11 06.44124 05 20 07.72 +18 26 08.3 19.8 V G96 – Mt. Lemmon Survey MPS 355183
2010 11 14.37690 05 15 45.25 +18 32 03.6 19.3 V G96 – Mt. Lemmon Survey MPS 357337
2010 11 14.38265 05 15 45.00 +18 32 03.8 19.4 V G96 – Mt. Lemmon Survey MPS 357337
2010 11 14.38837 05 15 44.78 +18 32 04.3 19.5 V G96 – Mt. Lemmon Survey MPS 357337
2010 11 14.39413 05 15 44.53 +18 32 04.6 19.5 V G96 – Mt. Lemmon Survey MPS 357337
2010 12 02.32416 05 01 29.15 +18 48 53.8 19.7   704 – Lincoln Laboratory ETS, New Mexico MPS 362591
2010 12 02.33708 05 01 28.43 +18 48 53.7 19.9   704 – Lincoln Laboratory ETS, New Mexico MPS 362591
2010 12 02.34997 05 01 27.77 +18 48 54.8 19.5   704 – Lincoln Laboratory ETS, New Mexico MPS 362591
2010 12 02.36298 05 01 26.99 +18 48 55.1 19.7   704 – Lincoln Laboratory ETS, New Mexico MPS 362591
2010 12 02.37589 05 01 26.31 +18 48 56.1 19.8   704 – Lincoln Laboratory ETS, New Mexico MPS 362591
2010 12 03.30730 05 00 36.10 +18 49 56.2 19.1 V G96 – Mt. Lemmon Survey MPS 362591
2010 12 03.31449 05 00 35.67 +18 49 56.7 19.1 V G96 – Mt. Lemmon Survey MPS 362591
2010 12 03.32113 05 00 35.31 +18 49 57.1 19.0 V G96 – Mt. Lemmon Survey MPS 362591
2010 12 03.32780 05 00 34.92 +18 49 57.5 19.1 V G96 – Mt. Lemmon Survey MPS 362591
2010 12 08.30775 04 56 03.48 +18 55 38.1 19.3 V 703 – Catalina Sky Survey MPS 362591
2010 12 08.31489 04 56 03.12 +18 55 38.0 18.7 V 703 – Catalina Sky Survey MPS 362591
2010 12 08.31564 04 56 03.01 +18 55 37.2 19.1 V 703 – Catalina Sky Survey MPS 362591
2010 12 08.32274 04 56 02.68 +18 55 37.9 18.9 V 703 – Catalina Sky Survey MPS 362591
2010 12 08.32349 04 56 02.61 +18 55 38.6 19.0 V 703 – Catalina Sky Survey MPS 362591
2010 12 08.33061 04 56 02.18 +18 55 38.9 19.3 V 703 – Catalina Sky Survey MPS 362591
2010 12 08.33136 04 56 02.11 +18 55 38.9 19.2 V 703 – Catalina Sky Survey MPS 362591
2010 12 13.20632 04 51 39.06 +19 01 37.5 19.3   704 – Lincoln Laboratory ETS, New Mexico MPS 362591
2010 12 13.21946 04 51 38.35 +19 01 38.2 19.2   704 – Lincoln Laboratory ETS, New Mexico MPS 362591
2010 12 13.23264 04 51 37.67 +19 01 39.3 20.0   704 – Lincoln Laboratory ETS, New Mexico MPS 362591
2010 12 13.24587 04 51 36.93 +19 01 39.7 19.6   704 – Lincoln Laboratory ETS, New Mexico MPS 362591
2010 12 13.25902 04 51 36.22 +19 01 41.1 19.5   704 – Lincoln Laboratory ETS, New Mexico MPS 362591
2010 12 25.22698 04 41 48.91 +19 18 46.6 19.1 V G96 – Mt. Lemmon Survey MPS 363300
2010 12 25.23388 04 41 48.62 +19 18 47.3 19.1 V G96 – Mt. Lemmon Survey MPS 363300
2010 12 25.24086 04 41 48.30 +19 18 47.8 19.1 V G96 – Mt. Lemmon Survey MPS 363300
2010 12 25.24779 04 41 47.97 +19 18 48.8 19.1 V G96 – Mt. Lemmon Survey MPS 363300
2010 12 29.11797 04 39 07.70 +19 25 12.8 20.1 R G92 – Jarnac Observatory, Vail MPS 363300
2010 12 29.13234 04 39 07.14 +19 25 15.6 20.2 R G92 – Jarnac Observatory, Vail MPS 363300
2010 12 29.14658 04 39 06.51 +19 25 17.1 19.3 R G92 – Jarnac Observatory, Vail MPS 363300
2011 01 28.18961 04 30 52.20 +20 33 29.3 19.7 V G96 – Mt. Lemmon Survey MPS 368445
2011 01 28.19657 04 30 52.23 +20 33 30.2 20.0 V G96 – Mt. Lemmon Survey MPS 368445
2011 01 28.20354 04 30 52.27 +20 33 31.1 19.9 V G96 – Mt. Lemmon Survey MPS 368445
2011 01 28.21054 04 30 52.30 +20 33 32.3 19.6 V G96 – Mt. Lemmon Survey MPS 368445
2011 02 10.13851 04 34 37.88 +21 12 10.7 20.5 V G96 – Mt. Lemmon Survey MPS 371369
2011 02 10.14603 04 34 38.06 +21 12 12.4 20.5 V G96 – Mt. Lemmon Survey MPS 371369
